Weather Roundup
Issued by NWS Springfield, MO

Home | Current Version | Previous Version | Text Only | Print | Product List | Glossary On
Versions: 1 2 3 4 5 6 7 8 9 10 11 12 13 14 15 16 17 18 19 20 21 22 23 24 25 26 27 28 29 30 31 32 33 34 35 36 37 38 39 40 41 42 43 44 45 46 47 48 49 50
000
NZUS99 KSGF 020257
HRRSGF

HOURLY WEATHER
NATIONAL WEATHER SERVICE SPRINGFIELD MO
1000 PM CDT SUN MAY 01 2016

......SGF CWA......

CITY           SKY/WX    TMP DP  RH WIND       PRES   REMARKS
SPRINGFIELD    CLEAR     55  43  63 W5        30.06R
JOPLIN         CLOUDY    56  49  77 W7        30.09R
WEST PLAINS    CLEAR     57  44  62 NW7       30.03R
ROLLA          MOCLDY    55  46  71 NW7       30.02R

......SURROUNDING SGF CWA......

CITY           SKY/WX    TMP DP  RH WIND       PRES   REMARKS
CHANUTE        CLOUDY    54  45  71 N10       30.12R
PARSONS        CLOUDY    56  49  77 NW13      30.13R
COFFEYVILLE    CLOUDY    58  48  69 W10       30.12R
EMPORIA        CLOUDY    50  43  77 N6        30.15R
HARRISON AR    CLEAR     55  46  71 NW7       30.05R

......KANSAS AND MISSOURI......

CITY           SKY/WX    TMP DP  RH WIND       PRES   REMARKS
KANSAS CTY INT CLOUDY    49  44  83 N9        30.11R
DOWNTOWN KC    CLOUDY    52  45  77 N7        30.11R
SEDALIA        CLOUDY    54  47  77 N8        30.08R
ST JOSEPH      CLOUDY    49  45  86 N9        30.12R
ST LOUIS       PTCLDY    59  48  67 NW10      30.01R
WICHITA        CLOUDY    51  41  68 N14       30.17R
TOPEKA         CLOUDY    50  42  74 N12       30.14R
OLATHE         CLOUDY    50  44  80 N9        30.11R

......TENNESSEE......

CITY           SKY/WX    TMP DP  RH WIND       PRES   REMARKS
MEMPHIS        NOT AVBL
NASHVILLE      PTCLDY    69  64  84 SW7       29.97R

......ARKANSAS.......

CITY           SKY/WX    TMP DP  RH WIND       PRES   REMARKS
FAYETTEVILLE   CLEAR     53  47  79 N6        30.06R
FT SMITH       CLEAR     62  45  53 NW9       30.04R
LITTLE ROCK    CLEAR     69  54  58 NW7       29.97R

......OKLAHOMA.......

CITY           SKY/WX    TMP DP  RH WIND       PRES   REMARKS
TULSA          LGT RAIN  56  51  84 N8        30.09S
PONCA CITY     CLOUDY    53  45  74 N7        30.15R
MCALESTER      PTCLDY    61  48  62 N5        30.08R
OKLAHOMA CITY  CLOUDY    54  45  71 N14       30.15R

......IOWA............

CITY           SKY/WX    TMP DP  RH WIND       PRES   REMARKS
DES MOINES     NOT AVBL
QUAD CITIES    LGT RAIN  50  47  89 N5        30.03R FOG

......ILLINOIS........

CITY           SKY/WX    TMP DP  RH WIND       PRES   REMARKS
QUINCY         CLOUDY    51  48  89 NW9       30.03R
CHICAGO        LGT RAIN  46  45  96 NE8       29.99R




USA.gov is the U.S. government's official web portal to all federal, state and local government web resources and services.